NV7SW Weather Reports


Display with metric or nautical units.
time (UTC)temp
F
wind
direction
speed
MPH
gust
MPH
rain 1hr
in
rain 24hr
in
rain mn
in
humidity
%
barometer
mb
20260905200012 75 227 9.0 16.0 0.00 0.00 0.00 27 1006.6
20260905194509 74 152 4.0 13.0 0.00 0.00 0.00 28 1006.8
20260905193009 73 194 6.0 12.0 0.00 0.00 0.00 29 1007.1
20260905191504 72 232 8.0 17.0 0.00 0.00 0.00 30 1007.2
20260905190059 71 202 2.0 9.0 0.00 0.00 0.00 33 1007.6
20260905184601 70 155 2.0 7.0 0.00 0.00 0.00 35 1008.0
20260905183057 68 139 1.0 6.0 0.00 0.00 0.00 38 1008.2
20260905181603 67 267 1.0 6.0 0.00 0.00 0.00 39 1008.5
20260905180046 66 258 1.0 6.0 0.00 0.00 0.00 40 1008.6
20260905174550 65 30 1.0 4.0 0.00 0.00 0.00 41 1008.7
20260905173041 63 269 0.0 5.0 0.00 0.00 0.00 45 1008.6
20260905171541 62 70 1.0 10.0 0.00 0.00 0.00 46 1008.9
20260905170032 61 82 6.0 9.0 0.00 0.00 0.00 48 1009.0
20260905164535 60 86 1.0 6.0 0.00 0.00 0.00 50 1009.1
20260905163025 58 109 2.0 6.0 0.00 0.00 0.00 52 1009.1
20260905161522 57 117 1.0 4.0 0.00 0.00 0.00 53 1009.1
20260905160138 56 76 1.0 4.0 0.00 0.00 0.00 54 1009.2
20260905154522 55 73 1.0 5.0 0.00 0.00 0.00 57 1009.2
20260905153023 53 90 1.0 2.0 0.00 0.00 0.00 58 1009.3
20260905151520 52 96 0.0 3.0 0.00 0.00 0.00 60 1009.3
20260905150019 51 272 0.0 3.0 0.00 0.00 0.00 61 1009.5
20260905144518 50 86 3.0 4.0 0.00 0.00 0.00 63 1009.6
20260905143018 48 282 0.0 1.0 0.00 0.00 0.00 66 1009.4
20260905141516 46 282 0.0 0.0 0.00 0.00 0.00 69 1009.5
20260905140015 44 282 0.0 0.0 0.00 0.00 0.00 71 1009.2
20260905134513 43 283 0.0 1.0 0.00 0.00 0.00 71 1008.9
20260905133012 43 282 1.0 2.0 0.00 0.00 0.00 70 1008.9
20260905131509 44 282 0.0 2.0 0.00 0.00 0.00 72 1008.8
20260905130007 44 282 0.0 0.0 0.00 0.00 0.00 72 1008.6
20260905124504 45 282 0.0 0.0 0.00 0.00 0.00 72 1008.4
20260905123001 45 282 0.0 0.0 0.00 0.00 0.00 69 1008.1
20260905121601 45 282 0.0 2.0 0.00 0.00 0.00 67 1008.1
20260905120114 46 282 0.0 2.0 0.00 0.00 0.00 65 1008.1
20260905114553 47 282 1.0 3.0 0.00 0.00 0.00 67 1008.0
20260905113052 47 288 1.0 4.0 0.00 0.00 0.00 67 1008.0
20260905111607 47 292 3.0 4.0 0.00 0.00 0.00 65 1008.0
20260905110053 48 255 1.0 2.0 0.00 0.00 0.00 66 1008.0
20260905104545 48 255 0.0 0.0 0.00 0.00 0.00 64 1007.8
20260905103046 49 255 0.0 0.0 0.00 0.00 0.00 65 1007.7
20260905101541 49 255 1.0 3.0 0.00 0.00 0.00 64 1007.6
20260905100041 50 255 0.0 1.0 0.00 0.00 0.00 64 1007.5
20260905094538 50 255 1.0 2.0 0.00 0.00 0.00 63 1007.5
20260905093035 50 141 0.0 0.0 0.00 0.00 0.00 62 1007.3
20260905091606 50 141 0.0 2.0 0.00 0.00 0.00 61 1007.3
20260905090028 51 248 0.0 2.0 0.00 0.00 0.00 58 1007.1
20260905084525 52 248 1.0 3.0 0.00 0.00 0.00 58 1007.1
20260905083022 53 248 0.0 1.0 0.00 0.00 0.00 57 1007.0
20260905081521 53 248 0.0 3.0 0.00 0.00 0.00 57 1007.0
20260905080017 54 188 1.0 6.0 0.00 0.00 0.00 57 1006.7
20260905074517 54 175 1.0 3.0 0.00 0.00 0.00 57 1006.4
20260905073012 55 86 0.0 2.0 0.00 0.00 0.00 55 1006.3
20260905071507 56 86 0.0 1.0 0.00 0.00 0.00 52 1006.1
20260905070005 57 23 1.0 8.0 0.00 0.00 0.00 52 1005.8
20260905064502 57 18 1.0 2.0 0.00 0.00 0.00 52 1005.5
20260905063101 58 169 0.0 2.0 0.00 0.00 0.00 51 1005.4
20260905061621 58 169 3.0 6.0 0.00 0.00 0.00 50 1005.1
20260905060109 59 115 2.0 7.0 0.00 0.00 0.00 49 1005.0
20260905054556 59 344 7.0 14.0 0.00 0.00 0.00 49 1004.8
20260905053055 59 324 10.0 17.0 0.00 0.00 0.00 48 1004.5
20260905051554 60 9 10.0 16.0 0.00 0.00 0.00 48 1004.3
20260905050053 60 355 8.0 15.0 0.00 0.00 0.00 47 1004.2
20260905044553 61 338 8.0 17.0 0.00 0.00 0.00 46 1004.1
20260905043051 62 333 4.0 9.0 0.00 0.00 0.00 43 1004.1
20260905041600 63 342 7.0 11.0 0.00 0.00 0.00 42 1004.0
20260905040049 63 39 8.0 11.0 0.00 0.00 0.00 41 1003.6
20260905034557 64 32 11.0 18.0 0.00 0.00 0.00 40 1003.1
20260905033048 65 36 10.0 16.0 0.00 0.00 0.00 39 1002.7
20260905031547 66 341 16.0 23.0 0.00 0.00 0.00 39 1002.0
20260905030046 67 336 13.0 22.0 0.00 0.00 0.00 36 1001.6
20260905024546 69 340 8.0 15.0 0.00 0.00 0.00 32 1001.5
20260905023045 70 324 9.0 13.0 0.00 0.00 0.00 30 1001.2
20260905021551 71 317 7.0 15.0 0.00 0.00 0.00 29 1001.1
20260905020043 72 291 5.0 16.0 0.00 0.00 0.00 28 1001.0
20260905014542 73 308 5.0 13.0 0.00 0.00 0.00 27 1000.9
20260905013042 75 273 9.0 14.0 0.00 0.00 0.00 25 1000.6
20260905011544 76 262 7.0 14.0 0.00 0.00 0.00 24 1000.5
20260905010041 77 227 6.0 12.0 0.00 0.00 0.00 23 1000.4
20260905004545 77 283 6.0 12.0 0.00 0.00 0.00 23 1000.5
20260905003037 78 254 6.0 10.0 0.00 0.00 0.00 22 1000.4
20260905001549 78 236 6.0 11.0 0.00 0.00 0.00 22 1000.2
20260905000035 77 260 8.0 13.0 0.00 0.00 0.00 23 1000.3
20260904234538 76 11 1.0 10.0 0.00 0.00 0.00 22 1000.4
20260904233041 76 226 3.0 11.0 0.00 0.00 0.00 23 1000.5
20260904231538 77 276 5.0 14.0 0.00 0.00 0.00 22 1000.5
20260904230028 77 220 5.0 14.0 0.00 0.00 0.00 22 1000.7
20260904224528 77 205 3.0 6.0 0.00 0.00 0.00 22 1000.9
20260904223026 76 284 5.0 12.0 0.00 0.00 0.00 23 1001.0
20260904221525 76 209 6.0 14.0 0.00 0.00 0.00 23 1001.2
20260904220023 76 248 9.0 15.0 0.00 0.00 0.00 24 1001.3
20260904214523 77 219 9.0 20.0 0.00 0.00 0.00 22 1001.5
20260904213025 77 215 4.0 10.0 0.00 0.00 0.00 23 1001.5
20260904211517 76 244 1.0 15.0 0.00 0.00 0.00 25 1001.9
20260904210015 75 122 1.0 14.0 0.00 0.00 0.00 26 1001.9
20260904204513 75 219 2.0 8.0 0.00 0.00 0.00 27 1002.1
20260904203012 75 227 8.0 24.0 0.00 0.00 0.00 26 1002.5
20260904201510 74 191 5.0 20.0 0.00 0.00 0.00 27 1002.5